Regional Weather Roundup
Issued by NWS Upton, NY

Current Version | Previous Version | Graphics & Text | Print | Product List | Glossary Off
Versions: 1 2 3 4 5 6 7 8 9 10 11 12 13 14 15 16 17 18 19 20 21 22 23 24 25 26 27

000
ASUS41 KOKX 202008
RWROKX

REGIONAL WEATHER ROUNDUP
NATIONAL WEATHER SERVICE NEW YORK NY
400 PM EDT SUN AUG 20 2017

NOTE: "FAIR" INDICATES FEW OR NO CLOUDS BELOW 12,000 FEET WITH NO
SIGNIFICANT WEATHER AND/OR OBSTRUCTIONS TO VISIBILITY.

NYZ071-072-176-178-NJZ106-104-202100-
NEW YORK CITY METRO AREA

CITY           SKY/WX    TMP DP  RH WIND       PRES   REMARKS
Central Park   MOSUNNY   81  60  48 VRB5      30.09F
Bronx Bot Gard   N/A     82  57  42 N6        30.07F
LaGuardia APRT MOSUNNY   83  60  45 NW10      30.05F
Kennedy INTL   MOSUNNY   84  60  44 N16       30.06F
Breezy Point     N/A     81 N/A N/A NW10        N/A
Newark/Liberty PTSUNNY   84  57  39 NW9G20    30.06F
Teterboro      MOSUNNY   83  60  45 W10G17    30.05F
$$

NYZ177-179-078>081-202100-
LONG ISLAND NEW YORK

CITY           SKY/WX    TMP DP  RH WIND       PRES   REMARKS
Jones Beach      N/A     81 N/A N/A NW10        N/A
Matinecock PT    N/A     79 N/A N/A NW8         N/A
Farmingdale    SUNNY     83  58  42 N8        30.06S
MacArthur/ISP  MOSUNNY   83  61  47 NW13      30.05S
Shirley        MOSUNNY   83  61  47 W13G22    30.05S
Mt Sinai Harb    N/A     82 N/A N/A W6G12       N/A
Westhampton    SUNNY     82  58  43 NW13      30.06S
East Hampton   FAIR      79  61  52 W9G17     30.03S
Montauk          N/A     80  63  55 W13G18    30.03F
$$

NYZ052-065-067-202100-
HUDSON VALLEY

CITY           SKY/WX    TMP DP  RH WIND       PRES   REMARKS
White Plains   MOSUNNY   81  58  45 W9        30.06F
Larchmont Harb   N/A     79 N/A N/A W9          N/A
Croton On Huds   N/A     82 N/A N/A NW7         N/A
Newburgh       MOSUNNY   81  63  54 W5        30.08S
Montgomery     SUNNY     83  59  44 NW8       30.06S
Poughkeepsie   MOSUNNY   82  57  42 W3        30.04F
Albany         MOSUNNY   80  58  46 W10       30.05F
$$

NJZ001-105-106-008-010-013-015-019>022-104-202100-
NEW JERSEY

CITY           SKY/WX    TMP DP  RH WIND       PRES   REMARKS
Newark/Liberty PTSUNNY   84  57  39 NW9G20    30.06F
Teterboro      MOSUNNY   83  60  45 W10G17    30.05F
Caldwell       SUNNY     81  59  47 NW7       30.08S
Somerville     SUNNY     84  59  42 VRB3      30.06F
Linden         FAIR      82  57  42 NW9G18    30.07S
Perth Amboy      N/A     79 N/A N/A NW12        N/A
Sussex         SUNNY     81  61  50 VRB6      30.08F
Andover          N/A     80  58  46 NW6       30.10S
Trenton        SUNNY     82  60  47 NW10      30.08F
Millville      SUNNY     85  64  49 NW6       30.08F
Atlantic City  SUNNY     85  61  44 W10       30.07F
Wrightstown    SUNNY     83  61  48 NW7       30.05F
Toms River     SUNNY     83  61  47 NW13      30.08F
Belmar         SUNNY     83  61  47 W12       30.08F
$$

PAZ047>061-062-071-202100-
EASTERN PENNSYLVANIA

CITY           SKY/WX    TMP DP  RH WIND       PRES   REMARKS
Philadelphia   MOSUNNY   84  58  40 NW9       30.09F
Allentown      MOSUNNY   82  61  48 NW5       30.09F
Scranton       MOSUNNY   81  60  48 MISG      30.11F
$$

CTZ002-004>006-009-010-012-RIZ004-006-007-MAZ004-011-015-202100-
SOUTHERN NEW ENGLAND
 IN CT

CITY           SKY/WX    TMP DP  RH WIND       PRES   REMARKS
Bradley INTL   MOSUNNY   83  57  41 NW14      30.03S
Hartford       MOSUNNY   84  58  40 NW12G18   30.02S
Danbury        MOSUNNY   80  57  45 W8        30.07F
Wtrbury/Oxford MOSUNNY   78  59  51 NW9       30.08S
Norwalk Harbor   N/A     79 N/A N/A NW8         N/A
Bridgeport     MOSUNNY   82  58  43 NW9       30.04S
Meriden        MOSUNNY   81  57  43 W14G21    30.03F
New Haven      PTSUNNY   82  58  43 NW8       30.04S
Chester        FAIR      81  59  47 VRB7      30.04S
Groton         MOSUNNY   84  59  42 NW10      30.00F
Wilimantic     SUNNY     82  59  45 W6G17     30.02S

 IN RI

CITY           SKY/WX    TMP DP  RH WIND       PRES   REMARKS
Providence     MOSUNNY   84  58  40 NW10      30.00S
Block Island   SUNNY     78  64  61 W13G21    30.02S
Westerly       PTSUNNY   84  59  42 MISG      30.02R
 IN MA

CITY           SKY/WX    TMP DP  RH WIND       PRES   REMARKS
Boston         MOSUNNY   82  55  39 NW14G21   29.97S
Worcester      PTSUNNY   78  54  43 NW13      30.04R
Westfield      MOSUNNY   82  57  42 NW14G22   30.02S
Provincetown   SUNNY     80  63  55 N6        29.98R
Nantucket      SUNNY     77  66  68 W16       29.98S
$$

ANZ330-335-338-340-345-350-353-355-202100-
COASTAL MARINE OBSERVATIONS


STATION/POSITION TIME  SKY/WX   TEMP    WIND        PRES    VSBY  WAVE
                                AIR SEA DIR/SP/G                  HT/PER
                 (UTC)          (F)     (DEG/KT/KT) (MB)    (MI)  (FT/S)
NY HARB ENTRANCE 1950            77 76  290/ 10/ 12 1017.4          2/ 8
GREAT SOUTH BAY  1930            79 80  290/  8/ 14   N/A
23 SSW MONTAUK P 1950            73 72              1017.3          3/ 7
15 E BARNEGAT LI 1930               78                N/A           2/ 7
HUDSON CANYON    1950            75 74  300/ 12/ 16 1017.7          3/ 5
KINGS POINT      1948            79 75  350/  7/ 11 1017.7
EXECUTION ROCKS  NOT AVBL
WESTERN LI SOUND NOT AVBL
CENTRAL LI SOUND NOT AVBL
EASTERN LI SOUND NOT AVBL
ROBBINS REEF     1948                   300/  7/ 15 1018.4
$$


>>>>>>>>>>>>>>>>>>>>>>>>>>>> KEY <<<<<<<<<<<<<<<<<<<<<<<<<<<
>                                                          <
>     SKY/WX - Sky Condition/Present Weather               <
>     TMP    - Temperature in Fahrenheit                   <
>     DP     - Dew Point in Fahrenheit                     <
>     RH     - Relative Humidity in Percent                <
>     WIND   - Direction (from) and Speed in MPH           <
>     PRES   - Mean Sea Level Pressure (inches of Hg)      <
>     WCI    - Wind Chill Index                            <
>     VSB    - VISIBILITY IN MILES                         <
>     HX     - HEAT INDEX                                  <
>     TC     - TEMPERATURE IN CELSIUS                      <
>     VRB    - VARIABLE WIND DIRECTION                     <
>                                                          <
>>>>>>>>>>>>>>>>>>>>>>>>>>>> KEY <<<<<<<<<<<<<<<<<<<<<<<<<<<




USA.gov is the U.S. government's official web portal to all federal, state and local government web resources and services.